Preview of NWS' New Version of Forecast
This preview is not operational and should not be used for support decisions.

Regional Weather Roundup (RWR)

Issued by Gray - Portland, ME (GYX)

                            
000
ASUS41 KGYX 201205
RWRGYX
WEATHER ROUNDUP FOR MAINE AND NEW HAMPSHIRE
NATIONAL WEATHER SERVICE GRAY ME
800 AM EDT TUE AUG 20 2019

MEZ002-005-006-010-012-015-018-020-021-024-026-027-029-201300-
MAINE
  
CITY           SKY/WX    TMP DP  RH WIND       PRES   REMARKS
PORTLAND       FAIR      72  64  76 NW6       30.06R                  
6HR MIN TEMP:  65; 6HR MAX TEMP:  73;                                

SANFORD        FAIR      72  64  76 VRB3      30.07R                  
BAR HARBOR     FAIR      67  65  93 NW5       30.02R                  
WISCASSET      FAIR      72  64  76 VRB3      30.06R                  
6HR MIN TEMP:  60; 6HR MAX TEMP:  72;                                

ROCKLAND       FAIR      70  65  84 CALM      30.03R                  
FRYEBURG       FAIR      70  63  78 E3        30.08R                  
6HR MIN TEMP:  57; 6HR MAX TEMP:  70;                                

LEWISTONAUBURN FAIR      68  63  84 CALM      30.07R                  
AUGUSTA        FAIR      70  63  78 W5        30.06R                  
6HR MIN TEMP:  65; 6HR MAX TEMP:  71;                                

WATERVILLE     FAIR      69  61  75 NW5       30.03R                  
BANGOR         FAIR      69  62  78 NW6       30.03R                  
6HR MIN TEMP:  63; 6HR MAX TEMP:  69;                                

GREENVILLE       N/A     64  56  75 NW6       30.06R                  
6HR MIN TEMP:  59; 6HR MAX TEMP:  65;                                

MILLINOCKET    FAIR      69  61  75 NW5       30.04R                  
6HR MIN TEMP:  63; 6HR MAX TEMP:  69;                                

HOULTON        FAIR      67  59  75 NW6       30.00R                  
6HR MIN TEMP:  56; 6HR MAX TEMP:  67;                                

PRESQUE ISLE   FAIR      63  58  83 CALM      30.02R                  
6HR MIN TEMP:  54; 6HR MAX TEMP:  64;                                

FRENCHVILLE    FAIR      62  55  77 W6        29.99S                  
6HR MIN TEMP:  56; 6HR MAX TEMP:  64;                                

CARIBOU        FAIR      65  58  78 W3        30.00R                  
6HR MIN TEMP:  58; 6HR MAX TEMP:  65;                                

$$

NHZ002-005-008-009-011-012-014-201300-
NEW HAMPSHIRE
  
CITY           SKY/WX    TMP DP  RH WIND       PRES   REMARKS
PORTSMOUTH     MOSUNNY   71  62  72 NW5       30.05R                  
ROCHESTER      FAIR      70  61  73 NW6       30.07R                  
6HR MIN TEMP:  62; 6HR MAX TEMP:  71;                                

NASHUA         FAIR      69  62  78 NW6       30.09R                  
MANCHESTER     FAIR      72  60  66 N5        30.07R                  
6HR MIN TEMP:  66; 6HR MAX TEMP:  76;                                

CONCORD        FAIR      68  61  78 CALM      30.09R                  
6HR MIN TEMP:  59; 6HR MAX TEMP:  68;                                

LACONIA        FAIR      70  62  76 SW3       30.10R                  
PLYMOUTH       FAIR      65  59  81 CALM      30.09R                  
BERLIN         FAIR      66  60  81 CALM      30.11R                  
6HR MIN TEMP:  54; 6HR MAX TEMP:  66;                                

WHITEFIELD     FAIR      62  58  86 CALM      30.11R                  
6HR MIN TEMP:  52; 6HR MAX TEMP:  62; 6HR PCP: TRACE;                

JAFFREY        FAIR      65  58  78 CALM      30.13R                  
6HR MIN TEMP:  59; 6HR MAX TEMP:  70;                                

KEENE          FAIR      62  59  90 CALM      30.12R                  
LEBANON        FAIR      64  58  80 CALM      30.10R                  
6HR MIN TEMP:  56; 6HR MAX TEMP:  64;                                

MT WASHINGTON  MOSUNNY   45  41  87 NW39        N/A                   
6HR MIN TEMP:  44; 6HR MAX TEMP:  50;                                

$$

VTZ005-007-008-201300-
VERMONT
  
CITY           SKY/WX    TMP DP  RH WIND       PRES   REMARKS
ST JOHNSBURY     N/A     59  59 100 MISG      30.09R                  
MONTPELIER     FAIR      63  58  83 CALM      30.15R                  
BURLINGTON     FAIR      65  58  78 CALM      30.09R                  
$$

MAZ007-012-024-CTZ003-RIZ002-NYZ038-NYZ072-201300-
SOUTHERN NEW ENGLAND AND NY
  
CITY           SKY/WX    TMP DP  RH WIND       PRES   REMARKS
BOSTON         FAIR      78  58  49 NW12      30.06R                  
WORCESTER      FAIR      68  59  73 W7        30.12R                  
NANTUCKET      FAIR      79  67  66 NW8       30.06R                  
PROVIDENCE     FAIR      74  66  76 W6        30.09R                  
HARTFORD       FAIR      72  60  66 W7        30.10R                  
ALBANY         FAIR      70  62  76 CALM      30.11R                  
NEW YORK CITY  FAIR      77  64  64 NE10      30.10R                  
$$

ANZ081-ANZ082-ANZ150-NHZ014-MEZ023>029-201300-
COASTAL MARINE OBSERVATIONS
  
STATION/POSITION TIME  TEMP    WIND        PRES    WAVE
                       AIR SEA DIR/SP/G            HT/PER
                 (UTC) (F)     (DEG/KT/KT) (MB)    (FT/S)
MATINICUS ROCK   1150   62                 1016.2R
ISLE OF SHOALS   1100   69     310/ 12/ 12 1016.8R
JEFFREYS LEDGE   1138      64                N/A     2/11
CASHES LEDGE BUO 1150   64 62  290/  6/  8 1017.3R   2/ 7
GEORGES BANK BUO 1150   70 73  270/ 12/ 14 1016.9R   3/ 9
$$

.............KEY..............
   WCI - WIND CHILL
   TC  - TEMPERATURE IN CELSIUS
   VSB - VISIBILITY IN MILES
   HX  - HEAT INDEX
   FAIR- INDICATES FEW OR NO CLOUDS BELOW 12,000 FT, WITH NO 
         SIGNIFICANT WEATHER AND/OR OBSTRUCTIONS TO VISIBILITY.